Dewpoint
6 6 7 8 9 10 12 13 12 11 9 8 8 8 10 12 12 13 13 14 18 20 20 22 22 24 26 28 29 30 31 33 35 37 37 40 43 44
5 5 4 6 7 9 10 11 11 11 10 10 9 10 10 9 11 13 13 15 16 17 18 20 22 24 25 26 28 29 29 31 32 33 34 36 37 39
4 4 4 5 6 6 7 8 9 9 9 10 10 10 9 10 11 14 14 14 14 15 17 20 22 23 24 24 25 26 28 28 29 31 33 34 39 40
4 4 4 3 4 5 6 6 7 8 8 9 9 10 10 12 13 14 14 13 13 14 17 20 21 20 20 21 23 24 26 26 28 29 34 36 37 37
3 3 3 4 4 5 5 6 7 7 9 9 10 12 13 13 15 14 14 14 14 14 15 14 16 18 19 20 21 22 24 25 29 28 27 31 30 29
2 2 3 4 4 5 6 7 7 8 9 10 11 13 14 15 14 13 14 14 16 14 14 14 16 17 18 18 18 20 21 22 23 24 25 26 27 28
6 6 7 8 9 11 12 14 15 15 14 15 18 18 14 14 15 16 13 14 15 15 15 17 17 18 18 18 18 17 18 20 22 24 24 25 26 27
9 9 9 9 10 11 13 16 19 22 22 22 15 15 17 15 14 14 14 13 13 15 15 15 17 17 19 20 19 18 19 20 20 22 23 24 24 27
10 10 9 8 9 10 11 12 14 17 17 19 17 14 13 14 14 13 13 13 12 14 17 17 18 19 20 19 20 21 22 21 22 22 22 23 25 25
9 8 8 8 9 9 10 9 9 10 10 9 9 10 11 12 13 13 14 16 18 21 21 19 20 19 22 23 21 18 17 18 19 19 21 22 24 25
4 5 5 6 7 8 9 12 13 12 11 10 12 13 14 16 17 18 19 22 16 15 17 19 19 19 17 16 15 14 15 16 17 18 19 20 22 23
5 3 4 6 8 9 10 11 13 13 14 16 15 14 14 11 10 14 16 16 16 18 19 19 16 14 14 15 16 17 18 18 17 18 19 20 22 23
6 5 5 6 7 9 12 15 19 20 16 15 18 15 15 16 17 18 20 20 22 20 15 12 14 14 15 15 15 16 17 18 19 19 19 19 19 20
10 8 8 7 7 9 11 14 13 13 15 15 17 19 19 15 16 16 15 14 14 14 15 15 16 16 16 16 16 16 17 17 18 18 19 19 20 21
9 11 10 10 12 13 15 18 16 16 14 13 14 14 14 13 12 13 14 15 15 16 16 17 18 18 18 17 17 16 16 17 18 19 19 20 20 20
4 5 6 8 10 11 11 13 14 10 12 11 10 10 10 10 11 13 13 14 15 15 16 17 18 18 18 18 17 17 17 16 17 18 19 19 19 20
5 7 8 7 6 5 9 12 13 6 5 5 6 7 7 8 11 12 13 13 13 13 13 15 16 17 17 17 17 17 16 17 17 18 18 18 18 19
13 14 13 13 15 14 12 4 3 3 3 3 3 4 8 11 11 12 13 13 13 13 13 13 14 15 16 16 17 16 17 17 17 17 17 17 17 18
15 15 13 13 12 9 4 3 2 2 2 2 5 9 10 11 12 13 13 13 13 13 13 14 14 15 13 11 11 12 13 14 15 16 17 18 17 17
13 12 11 9 7 6 5 4 5 5 5 7 8 11 12 13 13 12 11 11 11 12 12 13 14 14 14 12 11 11 13 13 14 14 15 16 17 18
11 11 10 7 7 6 6 5 6 6 6 7 10 11 12 12 11 11 11 11 11 13 12 12 13 13 15 16 16 15 16 16 17 15 15 15 14 14
7 8 7 7 7 6 5 5 6 6 6 7 9 10 10 11 10 10 10 11 11 10 10 11 11 12 13 13 12 11 11 12 13 15 18 18 16 14
8 7 7 7 6 6 5 5 5 5 6 7 7 8 9 9 9 9 10 11 11 11 10 10 10 11 12 12 12 11 12 12 13 13 15 15 17 18
Wind_Speed
12 12 11 11 11 11 11 13 14 17 17 13 14 11 11 12 15 16 16 20 23 23 22 23 24 25 25 25 26 26 26 26 25 23 26 26 27 26
12 13 13 12 12 12 12 13 14 17 21 14 15 15 15 15 17 18 17 22 21 23 22 23 24 25 26 27 27 26 26 25 27 28 27 26 27 26
15 15 15 15 13 13 13 14 15 16 21 16 16 14 17 17 17 16 17 18 17 21 23 24 25 25 26 27 27 27 28 28 29 29 29 28 26 23
16 16 16 16 16 16 15 17 16 17 18 21 17 16 18 16 16 20 17 16 16 21 26 25 24 26 27 28 30 31 30 30 30 28 26 23 23 25
16 17 17 16 17 16 17 16 16 16 16 18 18 15 16 17 17 18 17 17 17 22 23 26 28 29 27 28 29 29 29 28 27 25 29 28 30 31
17 17 17 17 18 18 17 18 18 18 18 19 19 18 18 17 16 19 20 15 15 17 22 25 28 29 29 28 28 27 25 27 28 28 28 28 29 30
18 19 18 20 24 23 19 18 19 19 20 21 20 17 18 19 19 16 18 19 18 18 19 18 19 18 20 24 24 26 28 28 29 30 31 32 32 32
20 20 20 24 24 28 30 31 28 23 23 17 20 22 21 20 19 19 20 22 23 14 20 21 19 22 20 18 26 30 31 31 31 32 33 33 34 33
20 20 21 19 24 20 24 29 27 28 30 23 23 23 24 23 22 22 22 22 24 19 21 26 20 23 23 22 28 30 31 34 34 33 34 34 34 35
21 22 23 23 22 23 22 23 23 22 21 20 23 24 24 23 22 23 25 26 26 23 22 28 23 24 21 20 29 33 35 36 37 37 37 36 36 36
21 22 22 23 26 30 26 23 23 23 25 33 35 35 36 37 35 28 24 23 24 24 21 25 23 23 23 20 21 30 34 35 37 37 37 38 37 37
20 22 29 30 32 33 28 25 26 27 25 24 24 25 27 28 34 27 23 25 26 27 20 20 20 20 25 22 23 21 20 27 33 36 36 36 35 26
21 21 20 29 31 32 32 24 24 23 25 25 23 23 22 22 22 22 23 22 22 21 21 24 21 22 22 26 27 25 20 23 21 24 31 35 38 36
24 22 23 31 33 33 31 30 34 33 24 22 23 22 19 19 17 17 17 19 20 23 23 25 23 23 24 27 29 27 22 22 21 23 23 28 35 37
22 25 33 35 35 33 34 33 32 23 20 18 19 18 16 16 18 19 20 22 24 26 25 26 22 24 24 27 29 28 30 25 21 23 23 23 24 23
23 23 26 29 32 29 28 22 16 16 17 16 16 17 18 19 20 19 21 21 22 25 24 24 24 25 28 27 28 32 25 31 22 24 23 24 24 24
21 19 20 20 21 21 18 18 14 13 14 16 18 20 21 22 22 19 21 22 24 26 27 23 23 25 27 30 30 29 30 30 27 26 25 28 27 26
25 22 21 22 21 17 13 12 12 16 17 19 22 23 22 20 21 22 21 23 26 27 27 25 24 26 27 30 33 31 32 31 28 29 28 29 32 28
22 17 4 3 5 8 11 12 15 16 17 19 20 20 21 22 25 22 23 24 26 27 27 25 25 25 30 35 30 32 32 30 27 28 27 28 32 33
12 4 4 5 8 10 11 13 15 16 17 18 19 20 21 21 22 24 24 26 27 28 28 26 26 27 31 36 37 31 31 31 28 30 29 28 33 40
5 7 6 8 11 11 12 13 16 18 19 20 21 21 22 21 24 25 27 34 36 31 32 31 30 36 32 31 35 34 31 40 41 37 33 33 34 31
10 9 9 11 12 12 13 15 17 19 20 21 22 22 23 23 25 28 28 30 31 31 32 32 31 29 29 33 39 39 35 32 35 42 46 46 32 37
9 9 11 13 12 14 15 17 19 21 21 22 23 24 24 26 27 28 31 32 32 33 33 34 32 30 34 35 41 39 40 38 33 34 34 41 48 51
Wind_Direction
277 277 275 273 271 268 265 267 275 285 282 289 294 292 306 304 298 309 307 306 314 310 312 313 315 315 314 314 312 310 309 307 304 307 304 305 304 308
284 283 280 277 276 272 268 265 264 270 277 276 282 290 291 294 296 302 298 307 304 307 308 310 310 309 309 309 307 305 305 304 306 302 301 299 294 298
279 278 277 279 276 274 272 267 265 265 272 276 276 284 288 289 289 291 298 299 294 303 306 306 306 303 304 304 304 305 305 302 299 299 298 297 303 299
278 278 276 276 273 270 268 265 265 267 272 279 280 283 277 281 290 287 286 285 289 299 301 302 300 303 303 302 300 299 298 298 297 295 296 298 297 299
275 274 275 275 273 271 270 270 269 270 272 276 279 277 274 272 276 272 282 284 290 286 294 302 303 302 296 297 295 295 294 294 291 294 295 291 293 293
275 273 273 271 271 272 272 271 270 269 268 270 274 281 279 273 280 287 279 287 287 299 294 293 293 294 294 294 292 289 290 292 290 289 289 288 289 290
276 273 270 265 264 261 258 258 263 266 268 267 266 278 283 279 272 282 295 285 285 288 284 283 287 286 284 289 286 285 284 284 285 286 288 288 288 285
279 277 274 275 275 274 271 268 261 257 255 264 274 270 275 283 287 289 288 283 283 277 279 283 283 287 286 278 280 284 286 283 284 284 285 285 283 283
274 276 278 275 276 276 275 276 276 274 272 273 276 274 277 274 276 278 277 279 279 287 287 284 282 281 281 279 282 284 287 289 284 280 281 281 280 278
271 271 271 271 270 270 269 270 271 270 267 267 266 267 267 271 269 270 273 276 279 278 274 276 281 279 281 278 277 280 284 284 282 280 278 278 278 279
271 272 273 274 273 273 272 271 273 272 270 270 272 273 272 272 273 273 272 274 280 279 277 277 281 280 280 283 283 287 287 286 285 282 280 279 277 276
273 275 273 270 269 266 265 264 263 263 265 265 266 272 276 276 277 282 283 276 279 278 270 271 283 287 289 285 288 285 283 284 285 284 282 278 276 275
268 269 268 270 271 271 269 263 260 262 264 273 274 272 269 269 268 266 264 265 271 274 273 277 282 285 282 286 285 281 280 278 278 278 277 276 274 272
264 265 266 270 272 271 271 271 269 271 272 273 274 272 271 275 273 272 271 273 272 273 276 276 278 276 276 278 277 284 276 272 272 273 273 273 274 272
266 265 267 268 267 269 273 275 275 274 273 277 279 275 277 284 289 285 282 277 274 270 269 270 267 269 267 268 274 275 282 276 271 270 269 269 270 270
270 272 271 269 266 264 268 271 273 273 270 270 280 286 289 285 279 276 277 278 276 276 271 268 263 261 265 262 265 271 271 274 272 266 266 267 264 262
259 258 258 258 260 264 271 273 273 278 286 288 284 281 281 280 276 277 276 278 275 276 277 273 265 260 259 261 265 266 270 267 268 267 266 267 264 261
264 264 261 261 253 243 252 273 281 284 281 279 275 272 273 277 281 281 278 275 274 274 274 273 272 271 268 263 253 264 264 263 264 263 259 261 265 261
271 275 237 256 261 267 273 275 277 275 278 276 275 276 276 275 277 277 276 275 275 274 271 271 269 267 270 270 270 254 262 264 263 260 256 252 259 261
269 228 241 250 260 262 266 271 277 278 275 273 271 270 270 270 273 273 273 273 275 275 274 270 265 262 261 265 272 270 258 264 263 262 260 257 255 258
274 261 250 261 261 263 272 279 277 276 274 271 266 265 266 268 271 271 272 275 278 277 276 272 266 265 265 270 268 266 260 252 251 255 259 259 261 263
258 256 258 262 266 274 278 277 276 275 272 268 267 266 266 267 269 271 272 273 273 271 270 270 271 269 265 261 265 268 268 265 261 258 253 249 252 256
258 269 269 269 272 273 273 272 271 271 269 268 268 268 269 270 269 270 272 273 272 272 270 270 268 264 261 261 263 267 266 265 262 260 255 252 256 259